Location: Newark
(48.2308°N, 120.8549°W)
Time: 09:45:22
(UTC+00:00)

X-37B - Visible Passes

Search period start: 27 February 2021 00:00
Search period end: 09 March 2021 00:00
Orbit: 383 x 391 km, 45.0° (Epoch: 10 February)

Date Brightness Start Highest point End Pass type
(mag) Time Alt. Az. Time Alt. Az. Time Alt. Az.
27 Feb 2.9 12:25:46 20° ESE 12:25:46 20° ESE 12:27:00 10° ESE visible
27 Feb 2.3 13:58:04 12° WSW 14:00:11 20° SSW 14:02:36 10° SSE visible
28 Feb 1.9 13:02:23 27° S 13:02:23 27° S 13:04:46 10° SE visible
01 Mar 2.7 13:39:04 13° SW 13:39:51 14° SSW 13:41:32 10° S visible
02 Mar 3.2 12:43:33 13° SSE 12:43:33 13° SSE 12:44:08 10° SSE visible
